• MPC Preparation (Info)

  • MPEC 2015-M36 : 2015 MV53

    The following Minor Planet Electronic Circular may be linked-to from your own Web pages, but must not otherwise be redistributed electronically.

    A form allowing access to any MPEC is at the bottom of this page.


    Read MPEC 2015-M35 Read MPEC 2015-M37


    M.P.E.C. 2015-M36                                Issued 2015 June 22, 14:12 UT
    
         The Minor Planet Electronic Circulars contain information on unusual
             minor planets and routine data on comets.  They are published
       on behalf of Commission 20 of the International Astronomical Union by the
              Minor Planet Center, Smithsonian Astrophysical Observatory,
                              Cambridge, MA 02138, U.S.A.
    
                 Prepared using the Tamkin Foundation Computer Network
    
                                  MPC@CFA.HARVARD.EDU
                URL https://www.minorplanetcenter.net/    ISSN 1523-6714
    
                                       2015 MV53
    
    Observations:
         K15M53V* C2015 06 18.34604 15 07 09.524-06 55 40.94         21.3 wLEM036F51
         K15M53V  C2015 06 18.35889 15 07 10.243-06 55 32.65         21.3 wLEM036F51
         K15M53V  C2015 06 18.37169 15 07 10.965-06 55 24.66         21.2 wLEM036F51
         K15M53V  C2015 06 18.38450 15 07 11.694-06 55 16.31         21.2 wLEM036F51
         K15M53V  C2015 06 19.33193 15 08 16.130-06 45 30.50         21.2 wLEM036F51
         K15M53V  C2015 06 19.34497 15 08 16.900-06 45 22.67         21.2 wLEM036F51
         K15M53V  C2015 06 19.35798 15 08 17.681-06 45 14.71         21.2 wLEM036F51
         K15M53V  C2015 06 19.37097 15 08 18.442-06 45 06.67         21.2 wLEM036F51
         K15M53V  C2015 06 21.19941 15 10 31.12 -06 27 30.5          20.2 RoEM036926
         K15M53V HC2015 06 21.20820 15 10 31.75 -06 27 27.0                oEM036691
         K15M53V  C2015 06 21.21065 15 10 31.87 -06 27 25.3          20.7 RoEM036926
         K15M53V HC2015 06 21.21536 15 10 32.22 -06 27 23.3                oEM036691
         K15M53V  C2015 06 21.22187 15 10 32.72 -06 27 18.5          20.7 RoEM036926
         K15M53V  C2015 06 22.15681 15 11 45.26 -06 18 53.8          20.9 RoEM036926
         K15M53V  C2015 06 22.17299 15 11 46.42 -06 18 44.9          20.9 RoEM036926
         K15M53V  C2015 06 22.18916 15 11 47.48 -06 18 36.4          21.2 RoEM036926
    
    Observer details:
    691 Steward Observatory, Kitt Peak.  Observer J. V. Scotti.  0.9-m f/3
        reflector + CCD.
    926 Tenagra II Observatory.  Observers M. Schwartz, P. R. Holvorcem.  Measurer
        M. Schwartz.  0.41-m f/3.75 astrograph + CCD, 0.81-m f/7 Ritchey-Chretien
        + CCD.
    F51 Pan-STARRS 1, Haleakala.  Observers B. Gibson, T. Goggia, N. Primak,
        A. Schultz, M. Willman.  Measurers K. Chambers, S. Chastel, L. Denneau,
        H. Flewelling, M. Huber, E. Lilly, E. Magnier, R. Wainscoat, C. Waters,
        R. Weryk.  1.8-m Ritchey-Chretien + CCD.
    
    Orbital elements:
    2015 MV53                                                Earth MOID = 0.2741 AU
    Epoch 2015 June 27.0 TT = JDT 2457200.5                 MPC
    M 354.89476              (2000.0)            P               Q
    n   0.26509379     Peri.   50.89421     +0.15972973     +0.98411721
    a   2.3999545      Node   228.47799     -0.93463603     +0.12551084
    e   0.4684130      Incl.    5.93824     -0.31771357     +0.12554021
    P   3.72           H   21.4           G   0.15           U   7
    Residuals in seconds of arc
    150618 F51  0.1+  0.1-    150619 F51  0.0   0.0     150621 926  1.3+  0.4+
    150618 F51  0.0   0.0     150619 F51  0.2-  0.1+    150622 926  0.1-  0.1-
    150618 F51  0.0   0.1-    150621 926  0.2-  0.9+    150622 926  0.3+  0.3+
    150618 F51  0.0   0.1+    150621 691  0.2+  0.3-    150622 926  0.8-  0.3+
    150619 F51  0.0   0.0     150621 926  0.2-  0.2-
    150619 F51  0.0   0.0     150621 691  0.0   0.6-
    
    Ephemeris:
    2015 MV53                a,e,i = 2.40, 0.47, 6                   q = 1.2758
    Date    TT    R. A. (2000) Decl.     Delta      r     Elong.  Phase     V
    2015 05 23    14 55 36.2 -13 28 17   0.3907  1.3918   163.8    11.7    20.8
    ...
    2015 06 07    14 58 13.8 -09 21 39   0.3644  1.3387   148.4    23.4    20.9
    ...
    2015 06 15    15 03 48.4 -07 33 15   0.3602  1.3163   141.3    28.8    21.0
    ...
    2015 06 21    15 10 16.2 -06 29 08   0.3607  1.3025   136.7    32.3    21.1
    2015 06 22    15 11 32.6 -06 20 02   0.3611  1.3004   136.0    32.9    21.1
    2015 06 23    15 12 52.4 -06 11 25   0.3615  1.2985   135.3    33.4    21.2
    ...
    2015 06 29    15 22 01.1 -05 29 29   0.3655  1.2884   131.5    36.2    21.2
    ...
    2015 07 07    15 37 07.9 -04 59 15   0.3746  1.2794   127.4    39.1    21.4
    ...
    2015 07 22    16 13 11.0 -05 12 28   0.4030  1.2772   122.2    42.3    21.6
    
    A. U. Tomatic                (C) Copyright 2015 MPC           M.P.E.C. 2015-M36
    

    Read MPEC 2015-M35 Read MPEC 2015-M37


    MPEC number:

    Enter an MPEC number in one of the following forms:

    • 1997-B01 (the full form)
    • J97B01 (the packed version of the full form)
    • B01 (the abbreviated form)